Regional Weather Roundup
Issued by NWS

Home | Current Version | Previous Version | Graphics & Text | Print | Product List | Glossary Off
Versions: 1 2 3 4 5 6 7 8 9 10 11 12 13 14 15 16 17 18 19 20 21 22 23 24 25 26 27 28 29 30 31 32 33 34 35 36 37 38 39 40 41 42 43 44 45 46 47 48 49 50

000
ASUS45 KBOU 300707
RWRCO

WEATHER ROUNDUP FOR COLORADO
NATIONAL WEATHER SERVICE DENVER/BOULDER CO
100 AM MDT SAT JUL 30 2016

NOTE: "FAIR" INDICATES FEW OR NO CLOUDS BELOW 12000 FEET WITH NO
SIGNIFICANT WEATHER AND/OR OBSTRUCTIONS TO VISIBILITY.

COZ001>005-013-030-031-300800-
...NORTHWEST COLORADO...

CITY           SKY/WX    TMP DP  RH WIND       PRES   REMARKS
CRAIG          FAIR      54  42  64 SE5       30.12R
HAYDEN         FAIR      63  36  36 E7        30.14S
MEEKER         FAIR      62  42  47 VRB3      30.14S
MOUNT WERNER   NOT AVBL
STEAMBOAT SPGS FAIR      56  40  55 CALM      30.17S
WALDEN         FAIR      46  34  61 SE6       30.27S
$$

COZ006>008-011-300800-
...WEST CENTRAL VALLEYS...

CITY           SKY/WX    TMP DP  RH WIND       PRES   REMARKS
GRAND JUNCTION FAIR      71  36  27 E8        29.98R
MONTROSE       FAIR      73  37  27 E8        30.09S
EAGLE          FAIR      64  36  34 N3        30.19S
RIFLE          FAIR      68  37  32 E5        30.07R
DELTA          NOT AVBL
NUCLA          NOT AVBL
$$

COZ017>023-064>068-300800-
...SOUTHWEST COLORADO...

CITY           SKY/WX    TMP DP  RH WIND       PRES   REMARKS
DURANGO        FAIR      69  43  38 SE10      30.24S
CORTEZ         FAIR      74  45  35 VRB3      30.12S
PAGOSA SPRINGS FAIR      61  37  42 CALM      30.35S
TELLURIDE      FAIR      63  33  32 CALM      30.42R
WOLF CREEK PAS MOCLDY    48  36  61 SW24G33   30.66S
$$

COZ009-010-012-014-032>034-037-058>063-300800-
...CENTRAL COLORADO...

CITY           SKY/WX    TMP DP  RH WIND       PRES   REMARKS
ASPEN          FAIR      58  37  45 SW8       30.26F
BUENA VISTA    FAIR      60  52  75 CALM      30.34S
COPPER MTN     MOCLDY    55  32  41 S10       30.61F
BERTHOUD PASS  FAIR      48  32  53 NW16G22   30.62F
COTTONWOOD PAS FAIR      57  48  72 CALM      30.47S
GUNNISON       FAIR      61  36  39 N3        30.30S
KREMMLING      FAIR      54  37  54 CALM      30.24S
LEADVILLE      FAIR      49  39  68 CALM      30.45S
MONARCH PASS   FAIR      52  36  54 MISG      30.73S
SALIDA         FAIR      66  54  65 SE3       30.38S
SUNLIGHT       FAIR      63  30  29 MISG      30.53F
WILKERSON PASS FAIR      50  45  81 CALM      30.60R
$$

COZ069>075-300800-
...SAN LUIS VALLEY/SANGRE DE CRISTO MOUNTAINS...

CITY           SKY/WX    TMP DP  RH WIND       PRES   REMARKS
ALAMOSA        FAIR      60  41  49 SE12      30.27S
LA VETA PASS   FAIR      52  46  82 S6        30.49F
SAGUACHE       FAIR      64  43  45 S5        30.33R
$$

COZ035-036-038>040-300800-
...NORTHERN COLORADO FRONT RANGE...

CITY           SKY/WX    TMP DP  RH WIND       PRES   REMARKS
DENVER INTL AP MOCLDY    69  60  73 S12       30.14R
DMNS CITY PARK   N/A     67  59  74 W7        30.13R
AURORA         PTCLDY    69  60  74 S16       30.15S
FRONT RANGE AP NOT AVBL
ERIE MUNI ARPT FAIR      63  59  86 W5        30.13S
BOULDER MUN AP FAIR      64  61  88 W3        30.14S
CENTENNIAL     FAIR      67  58  72 S13       30.16F
BROOMFIELD     FAIR      64  59  82 NW12      30.15F
LONGMONT       NOT AVBL
$$

COZ041-046-047-076>085-087-088-300800-
...PIKES PEAK/PALMER DIVIDE AND SOUTHERN FOOTHILLS...

CITY           SKY/WX    TMP DP  RH WIND       PRES   REMARKS
COLO. SPRINGS  MOCLDY    65  60  84 S9        30.25F
A. F. ACADEMY  CLOUDY    64  61  88 S9        30.24S
SCHRIEVER AFB  NOT AVBL
ELLICOTT       NOT AVBL
FALCON         NOT AVBL
FORT CARSON    CLOUDY    66  61  85 SE8       30.22S
LIMON          FAIR      64  61  90 S7        30.18F
MONUMENT HILL  CLOUDY    61  57  88 S18G24    30.27S
TRINIDAD       NOT AVBL
$$

COZ042>045-048>051-090-091-300800-
...NORTHEAST COLORADO...

CITY           SKY/WX    TMP DP  RH WIND       PRES   REMARKS
GREELEY ARPT   FAIR      64  61  88 SE12      30.12S
AKRON          MOCLDY    66  60  81 S12       30.11S
BURLINGTON     MOCLDY    64  58  80 S15       30.10F
WRAY           FAIR      66  61  82 S3        30.06S
STERLING       NOT AVBL
HOLYOKE        NOT AVBL
FORT MORGAN    NOT AVBL
$$

COZ086-089-092>099-300800-
...SOUTHEAST COLORADO...

CITY           SKY/WX    TMP DP  RH WIND       PRES   REMARKS
PUEBLO         FAIR      71  62  73 E14       30.13R
LA JUNTA       FAIR      69  63  81 E17       30.12F
LAMAR          FAIR      67  66  97 CALM      30.12R
SPRINGFIELD      N/A     59  58  96 N3        30.14F
$$



USA.gov is the U.S. government's official web portal to all federal, state and local government web resources and services.